Regional Weather Roundup
Issued by NWS

Home | Current Version | Previous Version | Graphics & Text | Print | Product List | Glossary On
Versions: 1 2 3 4 5 6 7 8 9 10 11 12 13 14 15 16 17 18 19 20 21 22 23 24 25 26 27 28 29 30 31 32 33 34 35 36 37 38 39 40 41 42 43 44 45 46 47 48 49 50
000
ASUS45 KABQ 291501
RWRNM
WEATHER ROUNDUP FOR NEW MEXICO
NATIONAL WEATHER SERVICE ALBUQUERQUE NM
900 AM MDT TUE JUL 29 2014

NOTE: "FAIR" MEANS FEW OR NO CLOUDS BELOW 12,000 FEET AGL WITH NO
       SIGNIFICANT WEATHER OR OBSTRUCTIONS TO VISION.

      THIS PRODUCT IS RELEASED AS TWO VERSIONS.  ONE VERSION NEAR
      THE TOP OF THE HOUR CONTAINING PRELIMINARY DATA FROM ALBUQUERQUE
      AND OTHER STATIONS.  A FINAL VERSION WITH ADDITIONAL DATA IS
      ISSUED ABOUT 10 MINUTES AFTER THE HOUR.

NMZ501-503-504-510>518-291600-
NORTHWEST PLATEAU/NORTHCENTRAL MOUNTAINS

CITY           SKY/WX    TMP DP  RH WIND       PRES   REMARKS
FARMINGTON     CLOUDY    67  59  75 CALM      30.32R
LOS ALAMOS     PTSUNNY   61  57  87 S3        30.44S
SANTA FE       CLOUDY    63  59  87 SE9       30.39R
TAOS           PTSUNNY   61  52  72 N3        30.43S
ANGEL FIRE     FAIR      59  53  81 NE3       30.49F

$$
NMZ402-403-502-505>509-291600-
WESTCENTRAL MOUNTAINS/SOUTHWEST MOUNTAINS

CITY           SKY/WX    TMP DP  RH WIND       PRES   REMARKS
GALLUP         MOSUNNY   65  58  78 CALM      30.39R

$$
NMZ407-409-411-412-291600-
SOUTHERN DESERTS

CITY           SKY/WX    TMP DP  RH WIND       PRES   REMARKS
LORDSBURG      FAIR      77  59  53 SE7       30.23S
DEMING         PTSUNNY   75  61  61 E5        30.25R
LAS CRUCES     CLOUDY    71  65  82 CALM      30.27S
HOLLOMAN AFB   PTSUNNY   70  68  94 W6        30.26R
T OR C         MOSUNNY   75 N/A N/A CALM      30.28S

$$
NMZ519>523-291600-
CENTRAL VALLEYS/CENTRAL HIGHLANDS

CITY           SKY/WX    TMP DP  RH WIND       PRES   REMARKS
ALBUQUERQUE    PTSUNNY   69  61  75 S5        30.34R
DOUBLE EAGLE   PTSUNNY   66  61  82 CALM      30.37R
CLINES CORNERS CLOUDY    62  58  86 S8        30.42R
BELEN          FAIR      69  61  74 S9        30.32S
SOCORRO        FAIR      71  61  70 S6        30.30S

$$
NMZ524>526-539-540-291600-
SOUTHCENTRAL MOUNTAINS

CITY           SKY/WX    TMP DP  RH WIND       PRES   REMARKS
RUIDOSO        NOT AVBL

$$
NMZ527>531-291600-
NORTHEAST HIGHLANDS/NORTHEAST PLAINS

CITY           SKY/WX    TMP DP  RH WIND       PRES   REMARKS
LAS VEGAS      PTSUNNY   60  58  92 SW16      30.41S
RATON          CLOUDY    63  59  87 SW6       30.35F
CLAYTON        CLOUDY    68  62  81 SW18      30.28F

$$
NMZ532>537-291600-
EASTCENTRAL PLAINS

CITY           SKY/WX    TMP DP  RH WIND       PRES   REMARKS
TUCUMCARI      LGT RAIN  66  62  87 SW8       30.26F
CANNON AFB     NOT AVBL
CLOVIS AIRPORT NOT AVBL

$$
NMZ028-029-538-291600-
SOUTHEAST PLAINS

CITY           SKY/WX    TMP DP  RH WIND       PRES   REMARKS
ROSWELL        RAIN      67  65  93 NW7       30.28R FOG
ARTESIA        LGT RAIN  70  64  83 N16G22    30.25R
CARLSBAD       PTSUNNY   79  62  56 NE7       30.20S
HOBBS          MOSUNNY   73  61  64 NE13      30.27R


$$


USA.gov is the U.S. government's official web portal to all federal, state and local government web resources and services.